West Palm Beach, FL

5:44 AM EDT on September 17, 2019 (GMT -0400)
Palm Beach International

Weather History for KPBI - July, 2019

Change the Weather History Date:

Wednesday, July 17, 2019

  Actual Average Record
Temperature  
Mean Temperature 87 °F 83 °F  
Max Temperature 91 °F 90 °F 96 °F (1981)
Min Temperature 82 °F 76 °F 69 °F (1913)
Degree Days  
Heating Degree Days 0 0  
Month to date heating degree days 0 0  
Since 1 June heating degree days 0 0  
Since 1 July heating degree days 0 0  
Cooling Degree Days 22 18  
Month to date cooling degree days 333 295  
Year to date cooling degree days 2305 1894  
Since 1 June cooling degree days 904 785  
Growing Degree Days 36 (Base 50)    
Moisture  
Dew Point 73 °F    
Average Humidity 66    
Maximum Humidity 79    
Minimum Humidity 52    
Precipitation  
Precipitation 0.00 in 0.16 in 2.71 in (1938)
Month to date precipitation 0.89 3.32  
Year to date precipitation 29.09 30.33  
Snow  
Snow 0.00 in - - ()
Month to date snowfall 0.0  
Since 1 June snowfall 0.0  
Since 1 July snowfall 0.0  
Snow Depth 0.00 in    
Sea Level Pressure  
Sea Level Pressure 30.11 in    
Wind  
Wind Speed 9 mph (ESE)    
Max Wind Speed 16 mph    
Max Gust Speed 21 mph    
Visibility 10 miles    
Events      
T = Trace of Precipitation, MM = Missing Value Source: NWS Daily Summary

Daily Weather History Graph

Daily Weather History Graph

Search for Another Location

Airport or City:

Astronomy

Jul. 17, 2019 Rise Set
Actual Time 6:37 AM EDT 8:15 PM EDT
Civil Twilight 6:11 AM EDT 8:41 PM EDT
Nautical Twilight 5:40 AM EDT 9:11 PM EDT
Astronomical Twilight 5:08 AM EDT 9:44 PM EDT
Moon 9:04 PM EDT 7:08 AM EDT
Length of Visible Light 14h 29m
Length of Day
13h 37m
Waxing Gibbous, 99% of the Moon is Illuminated
Jul 17
Waxing Gibbous
Jul 24
Last Quarter
Jul 31
New
Aug 7
First Quarter
Aug 15
Full

Hourly Weather History & Observations

Time (EDT) Temp. Heat Index Dew Point Humidity Pressure Visibility Wind Dir Wind Speed Gust Speed Precip Events Conditions
12:53 AM 82.0 °F 87.4 °F 73.0 °F 74% 30.13 in 10.0 mi SE 4.6 mph - N/A   Partly Cloudy
1:53 AM 82.0 °F 87.4 °F 73.0 °F 74% 30.12 in 10.0 mi ESE 4.6 mph - N/A   Partly Cloudy
2:53 AM 82.0 °F 87.4 °F 73.0 °F 74% 30.09 in 10.0 mi SE 4.6 mph - N/A   Partly Cloudy
3:53 AM 82.0 °F 87.9 °F 73.9 °F 76% 30.08 in 10.0 mi SE 6.9 mph - N/A   Partly Cloudy
4:53 AM 82.0 °F 87.9 °F 73.9 °F 76% 30.08 in 10.0 mi ESE 6.9 mph - N/A   Partly Cloudy
5:53 AM 82.0 °F 87.4 °F 73.0 °F 74% 30.10 in 10.0 mi SE 6.9 mph - N/A   Scattered Clouds
6:53 AM 82.0 °F 87.4 °F 73.0 °F 74% 30.11 in 10.0 mi SE 6.9 mph - N/A   Scattered Clouds
7:53 AM 84.0 °F 91.2 °F 73.9 °F 72% 30.13 in 10.0 mi SE 10.4 mph - N/A   Scattered Clouds
8:53 AM 84.0 °F 91.2 °F 73.9 °F 72% 30.14 in 10.0 mi ESE 10.4 mph - N/A   Scattered Clouds
9:53 AM 87.1 °F 95.4 °F 73.9 °F 65% 30.14 in 10.0 mi ESE 11.5 mph - N/A   Scattered Clouds
10:53 AM 88.0 °F 96.5 °F 73.9 °F 63% 30.15 in 10.0 mi SE 11.5 mph - N/A   Scattered Clouds
11:53 AM 89.1 °F 97.0 °F 73.0 °F 59% 30.14 in 10.0 mi SE 11.5 mph - N/A   Mostly Cloudy
12:53 PM 91.0 °F 97.6 °F 71.1 °F 52% 30.14 in 10.0 mi ESE 13.8 mph - N/A   Mostly Cloudy
1:53 PM 91.0 °F 97.6 °F 71.1 °F 52% 30.14 in 10.0 mi East 11.5 mph - N/A   Mostly Cloudy
2:53 PM 90.0 °F 99.0 °F 73.9 °F 59% 30.12 in 10.0 mi ESE 12.7 mph - N/A   Mostly Cloudy
3:53 PM 90.0 °F 97.9 °F 73.0 °F 57% 30.10 in 10.0 mi SE 12.7 mph - N/A   Mostly Cloudy
4:53 PM 90.0 °F 96.4 °F 71.1 °F 54% 30.09 in 10.0 mi ESE 12.7 mph - N/A   Scattered Clouds
5:53 PM 89.1 °F 94.1 °F 70.0 °F 53% 30.07 in 10.0 mi East 12.7 mph - N/A   Scattered Clouds
6:53 PM 87.1 °F 90.6 °F 68.0 °F 53% 30.08 in 10.0 mi ESE 10.4 mph - N/A   Scattered Clouds
7:53 PM 84.9 °F 90.7 °F 72.0 °F 65% 30.09 in 10.0 mi ESE 9.2 mph - N/A   Scattered Clouds
8:53 PM 84.0 °F 91.9 °F 75.0 °F 74% 30.12 in 10.0 mi SSE 6.9 mph - N/A   Scattered Clouds
9:53 PM 84.0 °F 91.9 °F 75.0 °F 74% 30.12 in 10.0 mi ESE 6.9 mph - N/A   Scattered Clouds
10:53 PM 82.9 °F 90.2 °F 75.0 °F 77% 30.12 in 10.0 mi ESE 6.9 mph - N/A   Scattered Clouds
11:53 PM 84.0 °F 91.9 °F 75.0 °F 74% 30.12 in 10.0 mi East 5.8 mph - N/A   Scattered Clouds